Location: Unspecified
(0.0000°N, 0.0000°E)
Time: 03:50:52
(UTC+00:00)

Vanguard 1 - Visible Passes

Search period start: 17 April 2014 00:00
Search period end: 27 April 2014 00:00
Orbit: 648 x 3839 km, 34.3° (Epoch: 16 April)

Date Brightness Start Highest point End Pass type
(mag) Time Alt. Az. Time Alt. Az. Time Alt. Az.
17 Apr 12.2 19:03:59 10° NW 19:26:30 75° NE 19:35:14 31° ESE visible
17 Apr 12.6 21:34:34 10° WNW 21:48:01 37° WSW 21:48:01 37° WSW visible
18 Apr 12.1 19:26:19 10° NW 19:48:37 88° SW 19:55:55 38° SE visible
18 Apr 13.0 21:58:51 10° W 22:08:43 26° WSW 22:08:43 26° WSW visible
19 Apr 12.1 05:23:43 10° SSE 05:25:21 11° SE 05:27:08 10° ESE visible
19 Apr 12.1 19:48:58 10° WNW 20:10:31 70° SW 20:16:37 42° SSE visible
19 Apr 13.4 22:24:05 10° W 22:29:24 17° WSW 22:29:24 17° WSW visible
20 Apr 12.9 17:43:13 10° NW 18:06:44 65° NE 18:23:02 10° ESE visible
20 Apr 12.2 20:12:04 10° WNW 20:32:17 54° SW 20:37:18 41° S visible
21 Apr 12.7 18:05:15 10° NW 18:29:08 79° NE 18:45:05 10° ESE visible
21 Apr 12.5 20:35:43 10° WNW 20:54:01 41° SW 20:57:58 36° S visible
22 Apr 12.7 18:27:32 10° NW 18:51:19 85° SW 19:05:51 14° SE visible
22 Apr 12.8 21:00:05 10° W 21:15:49 31° SW 21:18:38 29° SSW visible
23 Apr 11.8 04:30:00 10° SSE 04:31:04 11° SE 04:32:10 10° SE visible
23 Apr 12.7 18:50:09 10° WNW 19:13:21 69° SW 19:26:29 17° SE visible
23 Apr 13.1 21:25:22 10° W 21:37:49 22° SW 21:39:16 22° SSW visible
24 Apr 11.4 04:49:12 10° SSW 04:52:36 21° SE 04:56:33 10° E visible
24 Apr 12.9 19:13:13 10° WNW 19:35:18 55° SW 19:47:06 19° SSE visible
24 Apr 13.4 21:51:49 10° WSW 21:59:53 15° SW 21:59:53 15° SW visible
25 Apr 10.4 05:09:52 10° SSW 05:14:01 40° SE 05:19:17 10° ENE visible
25 Apr 12.9 19:36:52 10° WNW 19:57:16 43° SW 20:07:41 20° SSE visible
26 Apr 9.5 05:31:02 10° SW 05:35:27 79° SE 05:41:25 10° ENE visible
26 Apr 13.0 20:01:13 10° W 20:19:21 33° SW 20:28:14 20° S visible
